WZZ150 EPMO-EPKK

Flight info

Callsign WZZ150
Flight time 0h 39m
Altitude 26000
Route EVINA M66 KUKAM
Aircraft A20N/M-SDE2E3FGHIRWXY/LB1

Departure

Time 2026-05-06 19:15
Airport Warsaw Modlin Airport (EPMO)

Arrival

Time 2026-05-06 19:55
Airport Kraków John Paul II International Airport (EPKK)
Time Latitude Longitude Altitude Speed Heading
2026-05-06 18:53 52.44760 20.65418 338 ft 0 kts 206°
2026-05-06 19:06 52.44764 20.65422 338 ft 2 kts 202°
2026-05-06 19:06 52.44779 20.65431 337 ft 2 kts 193°
2026-05-06 19:07 52.44796 20.65433 335 ft 2 kts 149°
2026-05-06 19:07 52.44804 20.65412 338 ft 2 kts 89°
2026-05-06 19:07 52.44804 20.65402 333 ft 0 kts 82°
2026-05-06 19:10 52.44806 20.65427 338 ft 7 kts 81°
2026-05-06 19:10 52.44820 20.65573 336 ft 16 kts 81°
2026-05-06 19:10 52.44837 20.65774 333 ft 19 kts 82°
2026-05-06 19:11 52.44859 20.66000 338 ft 21 kts 81°
2026-05-06 19:11 52.44881 20.66244 333 ft 21 kts 82°
2026-05-06 19:11 52.44903 20.66478 337 ft 21 kts 81°
2026-05-06 19:11 52.44926 20.66715 337 ft 22 kts 81°
2026-05-06 19:12 52.44949 20.66970 336 ft 23 kts 82°
2026-05-06 19:12 52.45032 20.67075 338 ft 16 kts 351°
2026-05-06 19:12 52.45146 20.67046 335 ft 15 kts 351°
2026-05-06 19:12 52.45179 20.67036 334 ft 0 kts 345°
2026-05-06 19:14 52.45188 20.67032 337 ft 5 kts 344°
2026-05-06 19:14 52.45263 20.66982 336 ft 16 kts 317°
2026-05-06 19:14 52.45276 20.66821 336 ft 12 kts 262°
2026-05-06 19:15 52.45240 20.66436 331 ft 68 kts 261°
2026-05-06 19:15 52.45134 20.65312 337 ft 128 kts 262°
2026-05-06 19:15 52.44975 20.63637 618 ft 154 kts 260°
2026-05-06 19:15 52.44804 20.61891 1355 ft 159 kts 261°
2026-05-06 19:16 52.44606 20.60067 2142 ft 165 kts 260°
2026-05-06 19:16 52.44418 20.58160 2668 ft 178 kts 261°
2026-05-06 19:16 52.44280 20.56025 3046 ft 197 kts 272°
2026-05-06 19:16 52.44749 20.53915 3647 ft 207 kts 303°
2026-05-06 19:17 52.45860 20.52217 3983 ft 226 kts 311°
2026-05-06 19:17 52.46657 20.49905 4368 ft 244 kts 279°
2026-05-06 19:17 52.46607 20.47090 5026 ft 252 kts 250°
2026-05-06 19:17 52.45706 20.44721 6040 ft 250 kts 223°
2026-05-06 19:18 52.44188 20.43336 7006 ft 256 kts 196°
2026-05-06 19:18 52.42385 20.43284 7921 ft 267 kts 173°
2026-05-06 19:18 52.40561 20.44003 8890 ft 270 kts 172°
2026-05-06 19:18 52.38707 20.44492 9820 ft 271 kts 179°
2026-05-06 19:19 52.36801 20.44566 10518 ft 281 kts 185°
2026-05-06 19:19 52.34775 20.44298 10844 ft 303 kts 189°
2026-05-06 19:19 52.32620 20.43804 11242 ft 320 kts 191°
2026-05-06 19:19 52.30399 20.43222 12041 ft 325 kts 192°
2026-05-06 19:20 52.28159 20.42626 12895 ft 328 kts 192°
2026-05-06 19:20 52.25889 20.42029 13708 ft 332 kts 192°
2026-05-06 19:20 52.23596 20.41434 14471 ft 335 kts 192°
2026-05-06 19:20 52.21281 20.40840 15241 ft 338 kts 192°
2026-05-06 19:21 52.18953 20.40246 15974 ft 341 kts 192°
2026-05-06 19:21 52.16597 20.39646 16728 ft 344 kts 192°
2026-05-06 19:21 52.14222 20.39041 17456 ft 347 kts 192°
2026-05-06 19:21 52.11852 20.38438 18148 ft 351 kts 192°
2026-05-06 19:22 52.09422 20.37821 18767 ft 354 kts 192°
2026-05-06 19:22 52.06985 20.37202 19396 ft 357 kts 192°
2026-05-06 19:22 52.04520 20.36577 20023 ft 360 kts 192°
2026-05-06 19:22 52.02007 20.35941 20652 ft 362 kts 192°
2026-05-06 19:23 51.99503 20.35308 21250 ft 366 kts 192°
2026-05-06 19:23 51.97007 20.34677 21847 ft 369 kts 192°
2026-05-06 19:23 51.94467 20.34037 22447 ft 372 kts 192°
2026-05-06 19:23 51.91890 20.33387 23048 ft 375 kts 192°
2026-05-06 19:24 51.89302 20.32735 23592 ft 378 kts 192°
2026-05-06 19:24 51.86738 20.32094 24466 ft 364 kts 192°
2026-05-06 19:24 51.84370 20.31511 25132 ft 332 kts 192°
2026-05-06 19:24 51.82157 20.30967 25491 ft 305 kts 192°
2026-05-06 19:25 51.80135 20.30464 25670 ft 285 kts 193°
2026-05-06 19:25 51.78171 20.29966 25777 ft 289 kts 193°
2026-05-06 19:25 51.76162 20.29450 25790 ft 294 kts 193°
2026-05-06 19:25 51.74145 20.28940 25788 ft 292 kts 193°
2026-05-06 19:26 51.72135 20.28436 25789 ft 292 kts 193°
2026-05-06 19:26 51.70130 20.27935 25791 ft 292 kts 193°
2026-05-06 19:26 51.68116 20.27433 25792 ft 292 kts 192°
2026-05-06 19:26 51.66109 20.26933 25792 ft 292 kts 192°
2026-05-06 19:27 51.64100 20.26434 25792 ft 292 kts 192°
2026-05-06 19:27 51.62087 20.25934 25777 ft 293 kts 192°
2026-05-06 19:27 51.60072 20.25433 25620 ft 292 kts 192°
2026-05-06 19:27 51.58078 20.24939 25352 ft 289 kts 192°
2026-05-06 19:28 51.56092 20.24447 24976 ft 288 kts 192°
2026-05-06 19:28 51.54122 20.23959 24689 ft 284 kts 192°
2026-05-06 19:28 51.52162 20.23473 24332 ft 285 kts 192°
2026-05-06 19:28 51.50233 20.22996 23952 ft 284 kts 192°
2026-05-06 19:29 51.48279 20.22512 23584 ft 282 kts 192°
2026-05-06 19:29 51.46340 20.22027 23208 ft 280 kts 194°
2026-05-06 19:29 51.44576 20.20903 22757 ft 274 kts 214°
2026-05-06 19:29 51.43017 20.19152 22358 ft 271 kts 216°
2026-05-06 19:30 51.41491 20.17390 21958 ft 269 kts 216°
2026-05-06 19:30 51.39979 20.15643 21575 ft 267 kts 216°
2026-05-06 19:30 51.38469 20.13903 21186 ft 265 kts 216°
2026-05-06 19:30 51.36972 20.12180 20808 ft 264 kts 216°
2026-05-06 19:31 51.35491 20.10480 20442 ft 262 kts 216°
2026-05-06 19:31 51.34026 20.08804 20068 ft 260 kts 216°
2026-05-06 19:31 51.31097 20.05462 19354 ft 256 kts 216°
2026-05-06 19:32 51.29648 20.03814 18996 ft 255 kts 216°
2026-05-06 19:32 51.28200 20.02175 18640 ft 254 kts 216°
2026-05-06 19:32 51.26607 20.00993 18253 ft 257 kts 193°
2026-05-06 19:32 51.24814 20.00962 17926 ft 258 kts 178°
2026-05-06 19:33 51.23027 20.01385 17814 ft 261 kts 176°
2026-05-06 19:33 51.21228 20.01814 17794 ft 262 kts 178°
2026-05-06 19:33 51.19422 20.02064 17800 ft 259 kts 182°
2026-05-06 19:33 51.17611 20.02214 17690 ft 262 kts 181°
2026-05-06 19:34 51.15791 20.02395 17428 ft 260 kts 181°
2026-05-06 19:34 51.14001 20.02562 17155 ft 255 kts 181°
2026-05-06 19:34 51.12230 20.02703 16890 ft 256 kts 182°
2026-05-06 19:34 51.10454 20.02828 16639 ft 255 kts 182°
2026-05-06 19:35 51.08708 20.02944 16379 ft 253 kts 182°
2026-05-06 19:35 51.06953 20.03058 16117 ft 252 kts 182°
2026-05-06 19:35 51.05202 20.03170 15859 ft 251 kts 182°
2026-05-06 19:35 51.03464 20.03282 15614 ft 250 kts 182°
2026-05-06 19:36 51.01729 20.03393 15366 ft 249 kts 181°
2026-05-06 19:36 51.00005 20.03504 15119 ft 248 kts 181°
2026-05-06 19:36 50.98284 20.03615 14871 ft 247 kts 181°
2026-05-06 19:36 50.96571 20.03726 14627 ft 246 kts 181°
2026-05-06 19:37 50.94872 20.03835 14385 ft 244 kts 181°
2026-05-06 19:37 50.93166 20.03944 14152 ft 247 kts 181°
2026-05-06 19:37 50.91448 20.04054 13912 ft 245 kts 181°
2026-05-06 19:37 50.90329 20.04127 13752 ft 242 kts 181°
2026-05-06 19:38 50.88097 20.04272 13419 ft 240 kts 181°
2026-05-06 19:38 50.86424 20.04379 13152 ft 241 kts 181°
2026-05-06 19:38 50.84706 20.04487 12898 ft 260 kts 181°
2026-05-06 19:38 50.82835 20.04600 12644 ft 273 kts 180°
2026-05-06 19:39 50.80943 20.04724 12383 ft 269 kts 180°
2026-05-06 19:39 50.79111 20.04847 12126 ft 266 kts 180°
2026-05-06 19:39 50.77245 20.04970 11876 ft 268 kts 180°
2026-05-06 19:39 50.75388 20.05091 11619 ft 265 kts 180°
2026-05-06 19:40 50.73542 20.05210 11367 ft 265 kts 180°
2026-05-06 19:40 50.71701 20.05328 11117 ft 264 kts 180°
2026-05-06 19:40 50.69863 20.05446 10864 ft 263 kts 180°
2026-05-06 19:40 50.68042 20.05562 10611 ft 263 kts 180°
2026-05-06 19:41 50.66211 20.05680 10385 ft 262 kts 180°
2026-05-06 19:41 50.64396 20.05796 10133 ft 260 kts 180°
2026-05-06 19:41 50.62587 20.05912 9893 ft 259 kts 180°
2026-05-06 19:41 50.60792 20.06027 9589 ft 258 kts 180°
2026-05-06 19:42 50.58997 20.06142 9215 ft 257 kts 180°
2026-05-06 19:42 50.57215 20.06256 8830 ft 256 kts 180°
2026-05-06 19:42 50.55443 20.06370 8461 ft 254 kts 180°
2026-05-06 19:42 50.53705 20.06481 8098 ft 253 kts 180°
2026-05-06 19:43 50.51948 20.06594 7734 ft 252 kts 180°
2026-05-06 19:43 50.50204 20.06706 7387 ft 250 kts 181°
2026-05-06 19:43 50.48472 20.06818 7048 ft 248 kts 181°
2026-05-06 19:43 50.46750 20.06928 6706 ft 247 kts 181°
2026-05-06 19:44 50.45035 20.07039 6372 ft 246 kts 181°
2026-05-06 19:44 50.43331 20.07148 6026 ft 244 kts 181°
2026-05-06 19:44 50.41646 20.07254 5856 ft 242 kts 181°
2026-05-06 19:44 50.39950 20.07359 5808 ft 244 kts 181°
2026-05-06 19:45 50.38256 20.07468 5806 ft 243 kts 181°
2026-05-06 19:45 50.37136 20.07539 5806 ft 243 kts 181°
2026-05-06 19:45 50.35445 20.07646 5804 ft 243 kts 181°
2026-05-06 19:45 50.33251 20.07788 5803 ft 227 kts 181°
2026-05-06 19:46 50.32229 20.07856 5803 ft 217 kts 181°
2026-05-06 19:46 50.30744 20.07952 5809 ft 214 kts 181°
2026-05-06 19:46 50.29249 20.08042 5804 ft 215 kts 181°
2026-05-06 19:46 50.27761 20.08132 5758 ft 214 kts 181°
2026-05-06 19:47 50.26273 20.08224 5622 ft 214 kts 181°
2026-05-06 19:47 50.24790 20.08317 5502 ft 213 kts 181°
2026-05-06 19:47 50.23304 20.08410 5279 ft 214 kts 181°
2026-05-06 19:47 50.21814 20.08503 4978 ft 214 kts 181°
2026-05-06 19:48 50.20325 20.08597 4684 ft 214 kts 181°
2026-05-06 19:48 50.18840 20.08690 4405 ft 212 kts 181°
2026-05-06 19:48 50.17405 20.08783 4285 ft 200 kts 181°
2026-05-06 19:48 50.16075 20.08870 4205 ft 189 kts 181°
2026-05-06 19:49 50.14786 20.08952 4050 ft 180 kts 181°
2026-05-06 19:49 50.13602 20.08948 3975 ft 162 kts 193°
2026-05-06 19:49 50.12609 20.08322 3873 ft 148 kts 215°
2026-05-06 19:49 50.11925 20.07235 3784 ft 137 kts 234°
2026-05-06 19:50 50.11552 20.05895 3678 ft 136 kts 251°
2026-05-06 19:50 50.11371 20.04468 3446 ft 132 kts 253°
2026-05-06 19:50 50.11180 20.03050 3263 ft 133 kts 252°
2026-05-06 19:50 50.10989 20.01649 3217 ft 133 kts 252°
2026-05-06 19:51 50.10793 20.00240 3152 ft 133 kts 252°
2026-05-06 19:51 50.10598 19.98828 3093 ft 133 kts 252°
2026-05-06 19:51 50.10400 19.97411 2950 ft 134 kts 252°
2026-05-06 19:51 50.10202 19.95985 2801 ft 135 kts 252°
2026-05-06 19:52 50.10004 19.94555 2632 ft 135 kts 252°
2026-05-06 19:52 50.09806 19.93134 2459 ft 136 kts 253°
2026-05-06 19:52 50.09607 19.91696 2291 ft 136 kts 252°
2026-05-06 19:52 50.09406 19.90249 2116 ft 138 kts 253°
2026-05-06 19:53 50.09205 19.88796 1929 ft 137 kts 253°
2026-05-06 19:53 50.09002 19.87341 1738 ft 138 kts 255°
2026-05-06 19:53 50.08797 19.85873 1554 ft 139 kts 256°
2026-05-06 19:53 50.08593 19.84408 1381 ft 139 kts 258°
2026-05-06 19:54 50.08398 19.82937 1190 ft 138 kts 259°
2026-05-06 19:54 50.08185 19.81476 1043 ft 139 kts 258°
2026-05-06 19:54 50.07984 19.80004 874 ft 139 kts 259°
2026-05-06 19:54 50.07791 19.78593 801 ft 108 kts 256°
2026-05-06 19:55 50.07679 19.77795 797 ft 64 kts 258°
2026-05-06 19:55 50.07590 19.77166 802 ft 45 kts 258°
2026-05-06 19:55 50.07528 19.76866 802 ft 8 kts 217°
2026-05-06 19:55 50.07451 19.76853 800 ft 19 kts 167°
2026-05-06 19:56 50.07314 19.76934 799 ft 18 kts 118°
2026-05-06 19:56 50.07325 19.77096 799 ft 16 kts 78°
2026-05-06 19:56 50.07352 19.77278 799 ft 18 kts 77°
2026-05-06 19:56 50.07380 19.77474 799 ft 19 kts 80°
2026-05-06 19:57 50.07407 19.77683 799 ft 21 kts 77°
2026-05-06 19:57 50.07447 19.77963 799 ft 33 kts 78°
2026-05-06 19:57 50.07499 19.78338 800 ft 37 kts 78°
2026-05-06 19:57 50.07555 19.78728 800 ft 37 kts 78°
2026-05-06 19:58 50.07606 19.79103 800 ft 35 kts 78°
2026-05-06 19:58 50.07657 19.79471 800 ft 34 kts 78°
2026-05-06 19:58 50.07700 19.79772 800 ft 11 kts 76°
2026-05-06 19:58 50.07677 19.79873 800 ft 13 kts 152°
2026-05-06 19:59 50.07566 19.79916 800 ft 20 kts 168°
2026-05-06 19:59 50.07512 19.79986 800 ft 9 kts 91°
2026-05-06 19:59 50.07514 19.80061 800 ft 3 kts 118°
2026-05-06 19:59 50.07492 19.80073 800 ft 0 kts 166°
2026-05-06 20:00 50.07471 19.80079 800 ft 1 kts 168°
2026-05-06 20:00 50.07470 19.80080 800 ft 0 kts 168°